Hourly Weather Chadaevka

Today, 13 June, Sunday

Time Temperature Precipitation Wind Pressure Humidity
00:00 +17°C° 0.2 mm 2 mps 746 mmHg 88%
01:00 +17°C° 0.1 mm 2 mps 746 mmHg 89%
02:00 +16°C° 0.1 mm 2 mps 746 mmHg 90%
03:00 +16°C° 0 mm 2 mps 746 mmHg 91%
04:00 +17°C° 0 mm 2 mps 746 mmHg 89%
05:00 +18°C° 0 mm 2 mps 746 mmHg 87%
06:00 +18°C° 0 mm 2 mps 746 mmHg 86%
07:00 +20°C° 0 mm 3 mps 746 mmHg 80%
08:00 +21°C° 0 mm 3 mps 746 mmHg 75%
09:00 +23°C° 0 mm 4 mps 747 mmHg 70%
10:00 +23°C° 0.4 mm 4 mps 747 mmHg 68%
11:00 +25°C° 0.4 mm 5 mps 747 mmHg 67%
12:00 +24°C° 0.4 mm 6 mps 747 mmHg 66%
13:00 +25°C° 0.1 mm 5 mps 747 mmHg 65%
14:00 +25°C° 0.1 mm 5 mps 747 mmHg 64%
15:00 +26°C° 0.1 mm 5 mps 747 mmHg 64%
16:00 +25°C° 0 mm 4 mps 747 mmHg 68%
17:00 +25°C° 0 mm 3 mps 747 mmHg 72%
18:00 +24°C° 0 mm 2 mps 747 mmHg 76%
19:00 +23°C° 0.5 mm 2 mps 747 mmHg 80%
20:00 +20°C° 0.5 mm 2 mps 747 mmHg 84%
21:00 +19°C° 0.5 mm 2 mps 747 mmHg 89%
22:00 +19°C° 0.1 mm 2 mps 747 mmHg 89%
23:00 +18°C° 0.1 mm 2 mps 747 mmHg 90%

Tomorrow, 14 June, Monday

Time Temperature Precipitation Wind Pressure Humidity
00:00 +17°C° 0.1 mm 2 mps 747 mmHg 90%
01:00 +18°C° 0 mm 1 mps 748 mmHg 90%
02:00 +18°C° 0 mm 1 mps 748 mmHg 90%
03:00 +18°C° 0 mm 1 mps 748 mmHg 90%
04:00 +19°C° 0 mm 1 mps 748 mmHg 89%
05:00 +19°C° 0 mm 1 mps 748 mmHg 88%
06:00 +20°C° 0 mm 1 mps 749 mmHg 86%
07:00 +20°C° 0 mm 2 mps 749 mmHg 84%
08:00 +21°C° 0 mm 2 mps 749 mmHg 81%
09:00 +21°C° 0 mm 3 mps 749 mmHg 79%
10:00 +21°C° 0.4 mm 3 mps 749 mmHg 80%
11:00 +21°C° 0.4 mm 4 mps 749 mmHg 81%
12:00 +20°C° 0.4 mm 4 mps 750 mmHg 82%
13:00 +20°C° 1.5 mm 4 mps 750 mmHg 86%
14:00 +19°C° 1.5 mm 4 mps 750 mmHg 89%
15:00 +18°C° 1.5 mm 3 mps 750 mmHg 93%
16:00 +18°C° 0.4 mm 3 mps 749 mmHg 93%
17:00 +18°C° 0.4 mm 3 mps 749 mmHg 94%
18:00 +18°C° 0.4 mm 2 mps 749 mmHg 94%
19:00 +18°C° 0.1 mm 2 mps 749 mmHg 94%
20:00 +17°C° 0.1 mm 2 mps 749 mmHg 93%
21:00 +17°C° 0.1 mm 2 mps 748 mmHg 92%
22:00 +17°C° 0.1 mm 3 mps 748 mmHg 93%
23:00 +17°C° 0.1 mm 3 mps 748 mmHg 94%

Day after tomorrow, 15 June, Tuesday

Time Temperature Precipitation Wind Pressure Humidity
00:00 +17°C° 0.1 mm 3 mps 748 mmHg 94%
01:00 +17°C° 0.4 mm 3 mps 748 mmHg 96%
02:00 +17°C° 0.4 mm 3 mps 747 mmHg 97%
03:00 +17°C° 0.4 mm 3 mps 747 mmHg 98%
04:00 +17°C° 0.2 mm 3 mps 747 mmHg 97%
05:00 +18°C° 0.2 mm 3 mps 747 mmHg 97%
06:00 +18°C° 0.2 mm 3 mps 747 mmHg 97%
07:00 +18°C° 0.7 mm 3 mps 747 mmHg 97%
08:00 +18°C° 0.7 mm 3 mps 747 mmHg 97%
09:00 +18°C° 0.7 mm 3 mps 747 mmHg 97%
10:00 +20°C° 0.3 mm 3 mps 747 mmHg 92%
11:00 +21°C° 0.3 mm 3 mps 746 mmHg 87%
12:00 +22°C° 0.3 mm 3 mps 746 mmHg 82%
13:00 +24°C° 1 mm 3 mps 746 mmHg 79%
14:00 +24°C° 1 mm 3 mps 746 mmHg 76%
15:00 +25°C° 1 mm 3 mps 745 mmHg 73%
16:00 +25°C° 0.6 mm 2 mps 745 mmHg 75%
17:00 +25°C° 0.6 mm 2 mps 745 mmHg 77%
18:00 +25°C° 0.6 mm 2 mps 744 mmHg 79%
19:00 +23°C° 0 mm 2 mps 744 mmHg 83%
20:00 +21°C° 0 mm 2 mps 744 mmHg 87%
21:00 +19°C° 0 mm 2 mps 744 mmHg 91%
22:00 +19°C° 0 mm 2 mps 744 mmHg 92%
23:00 +18°C° 0 mm 2 mps 744 mmHg 93%

16 June, Wednesday

Time Temperature Precipitation Wind Pressure Humidity
00:00 +18°C° 0 mm 2 mps 744 mmHg 95%
01:00 +17°C° 0 mm 2 mps 744 mmHg 95%
02:00 +17°C° 0 mm 2 mps 744 mmHg 96%
03:00 +16°C° 0 mm 2 mps 744 mmHg 96%
04:00 +17°C° 0 mm 2 mps 744 mmHg 96%
05:00 +18°C° 0 mm 2 mps 744 mmHg 95%
06:00 +18°C° 0 mm 2 mps 744 mmHg 95%
07:00 +19°C° 0 mm 3 mps 745 mmHg 90%
08:00 +21°C° 0 mm 3 mps 745 mmHg 85%
09:00 +22°C° 0 mm 3 mps 745 mmHg 80%
10:00 +22°C° 0 mm 4 mps 745 mmHg 77%
11:00 +23°C° 0 mm 4 mps 745 mmHg 74%
12:00 +25°C° 0 mm 4 mps 745 mmHg 71%
13:00 +25°C° 0 mm 4 mps 745 mmHg 71%
14:00 +25°C° 0 mm 4 mps 746 mmHg 72%
15:00 +25°C° 0 mm 4 mps 746 mmHg 72%
16:00 +25°C° 0 mm 4 mps 746 mmHg 74%
17:00 +25°C° 0 mm 4 mps 746 mmHg 76%
18:00 +25°C° 0 mm 4 mps 746 mmHg 77%
19:00 +24°C° 0 mm 3 mps 746 mmHg 81%
20:00 +21°C° 0 mm 3 mps 747 mmHg 85%
21:00 +20°C° 0 mm 2 mps 747 mmHg 89%
22:00 +19°C° 0 mm 2 mps 747 mmHg 90%
23:00 +19°C° 0 mm 2 mps 747 mmHg 91%

17 June, Thursday

Time Temperature Precipitation Wind Pressure Humidity
00:00 +18°C° 0 mm 3 mps 747 mmHg 92%
01:00 +18°C° 0 mm 3 mps 747 mmHg 93%
02:00 +17°C° 0 mm 3 mps 748 mmHg 94%
03:00 +17°C° 0 mm 3 mps 748 mmHg 95%
04:00 +18°C° 0 mm 3 mps 748 mmHg 93%
05:00 +18°C° 0 mm 3 mps 748 mmHg 92%
06:00 +19°C° 0 mm 3 mps 748 mmHg 91%
07:00 +20°C° 0 mm 4 mps 748 mmHg 88%
08:00 +21°C° 0 mm 5 mps 749 mmHg 86%
09:00 +22°C° 0 mm 6 mps 749 mmHg 83%
10:00 +22°C° 0 mm 5 mps 749 mmHg 79%
11:00 +23°C° 0 mm 5 mps 749 mmHg 75%
12:00 +25°C° 0 mm 5 mps 750 mmHg 71%
13:00 +24°C° 0 mm 6 mps 750 mmHg 68%
14:00 +24°C° 0 mm 6 mps 750 mmHg 66%
15:00 +26°C° 0 mm 7 mps 750 mmHg 63%
16:00 +24°C° 0 mm 6 mps 750 mmHg 66%
17:00 +23°C° 0 mm 6 mps 751 mmHg 69%
18:00 +22°C° 0 mm 6 mps 751 mmHg 72%
19:00 +21°C° 0 mm 5 mps 751 mmHg 76%
20:00 +19°C° 0 mm 5 mps 751 mmHg 80%
21:00 +17°C° 0 mm 4 mps 752 mmHg 84%
22:00 +17°C° 0 mm 4 mps 752 mmHg 82%
23:00 +15°C° 0 mm 5 mps 752 mmHg 81%

18 June, Friday

Time Temperature Precipitation Wind Pressure Humidity
00:00 +15°C° 0 mm 5 mps 752 mmHg 79%
01:00 +15°C° 0 mm 5 mps 752 mmHg 79%
02:00 +14°C° 0 mm 5 mps 752 mmHg 80%
03:00 +14°C° 0 mm 5 mps 752 mmHg 80%
04:00 +14°C° 0 mm 5 mps 753 mmHg 79%
05:00 +15°C° 0 mm 5 mps 753 mmHg 79%
06:00 +15°C° 0 mm 5 mps 753 mmHg 78%
07:00 +16°C° 0 mm 6 mps 753 mmHg 73%
08:00 +19°C° 0 mm 6 mps 754 mmHg 67%
09:00 +20°C° 0 mm 7 mps 754 mmHg 61%
10:00 +21°C° 0 mm 7 mps 754 mmHg 59%
11:00 +22°C° 0 mm 7 mps 754 mmHg 56%
12:00 +22°C° 0 mm 7 mps 754 mmHg 54%
13:00 +23°C° 0 mm 7 mps 754 mmHg 54%
14:00 +23°C° 0 mm 7 mps 754 mmHg 55%
15:00 +23°C° 0 mm 7 mps 754 mmHg 56%
16:00 +23°C° 0 mm 6 mps 754 mmHg 60%
17:00 +22°C° 0 mm 5 mps 754 mmHg 64%
18:00 +21°C° 0 mm 5 mps 754 mmHg 67%
19:00 +20°C° 0 mm 5 mps 754 mmHg 72%
20:00 +18°C° 0 mm 4 mps 755 mmHg 76%
21:00 +15°C° 0 mm 4 mps 755 mmHg 80%
22:00 +15°C° 0 mm 4 mps 755 mmHg 80%
23:00 +14°C° 0 mm 3 mps 755 mmHg 81%
Show more

We Need Your Consent

Meteoprog and our Service Providers may store and access personal data such as cookies, device identifiers or other similar technologies on your device and process such data to personalise content and ads, as well as provide social media features and to analyse the traffic.

  • Store and/or access information on your device

    Cookies, device identifiers or other information can be stored or accessed on your device for the purposes indicated above.

  • Personalised ads and content, ad and content measurement, audience insights, and products development

    Ads and content can be personalised based on a profile. More data can be added to better personalise ads and content. Ad and content performance can be measured. Insights about the audience who saw the ads and content can be derived. Such data can be used to develop or improve user’s experience, systems and software.

By clicking ‘I Agree’ you will allow the use of indicated cookies, device identifiers, web beacons or other similar technologies. Your settings can be changed in the browser on your device.

For certain purposes, legitimate interests may be relied on, rather than consent. You can read more about this in our Privacy and Cookie Policy.